Weather History for Sherman-Denison, TX

Change the Weather History Date:

Tuesday, September 3, 2013

  Actual Average (KDFW) Record (KDFW)
Temperature  
Mean Temperature 84 °F 82 °F  
Max Temperature 97 °F 93 °F 109 °F (2000)
Min Temperature 72 °F 72 °F 60 °F (1974)
Degree Days  
Heating Degree Days 0 0  
Month to date heating degree days 0  
Since 1 July heating degree days 0  
Cooling Degree Days 20 17  
Month to date cooling degree days 53  
Year to date cooling degree days 2235  
Growing Degree Days 34 (Base 50)    
Moisture  
Dew Point 59 °F    
Average Humidity 46    
Maximum Humidity 76    
Minimum Humidity 13    
Precipitation  
Precipitation 0.00 in 0.10 in 2.18 in (1976)
Month to date precipitation 0.29  
Year to date precipitation 24.40  
Sea Level Pressure  
Sea Level Pressure 29.98 in    
Wind  
Wind Speed 5 mph (NNE)    
Max Wind Speed 13 mph    
Max Gust Speed 16 mph    
Visibility 10 miles    
Events      
T = Trace of Precipitation, MM = Missing Value Source: NWS Daily Summary

Daily Weather History Graph

Daily Weather History Graph

Search for Another Location

Airport:

Trip Planner

Search our weather history database for the weather conditions in past years. The results will help you decide how hot, cold, wet, or windy it might be!

Date:

Astronomy

Sep. 03, 2013 Rise Set
Actual Time 7:02 AM CDT 7:49 PM CDT
Civil Twilight 6:36 AM CDT 8:14 PM CDT
Nautical Twilight 6:06 AM CDT 8:44 PM CDT
Astronomical Twilight 5:36 AM CDT 9:14 PM CDT
Moon 5:19 AM CDT (9/3) 6:36 PM CDT (9/3)
Length of Visible Light 13h 37m
Length of Day
12h 47m
Waning Crescent, 3% of the Moon is Illuminated
Sep 3
Waning Crescent
Sep 5
New
Sep 12
First Quarter
Sep 19
Full
Sep 26
Last Quarter

Hourly Weather History & Observations

Time (CDT) Temp. Heat Index Dew Point Humidity Pressure Visibility Wind Dir Wind Speed Gust Speed Precip Events Conditions
12:15 AM 80.2 °F 81.1 °F 60.4 °F 51% 29.97 in 10.0 mi NNE 5.8 mph - N/A   Clear
12:35 AM 80.2 °F 81.0 °F 60.3 °F 50% 29.98 in 10.0 mi NE 4.6 mph - N/A   Clear
12:55 AM 79.3 °F - 60.6 °F 53% 29.98 in 10.0 mi NE 5.8 mph - N/A   Scattered Clouds
1:15 AM 79.3 °F - 60.6 °F 53% 29.98 in 10.0 mi NE 4.6 mph - N/A   Scattered Clouds
1:35 AM 78.1 °F - 60.8 °F 55% 29.99 in 10.0 mi NE 4.6 mph - N/A   Scattered Clouds
1:55 AM 78.6 °F - 60.1 °F 53% 29.98 in 10.0 mi NNE 5.8 mph - N/A   Scattered Clouds
2:15 AM 77.9 °F - 60.3 °F 54% 29.98 in 10.0 mi ENE 3.5 mph - N/A   Clear
2:35 AM 76.3 °F - 60.4 °F 58% 29.98 in 10.0 mi NNE 4.6 mph - N/A   Clear
2:55 AM 76.5 °F - 61.0 °F 59% 29.98 in 10.0 mi NNE 4.6 mph - N/A   Clear
3:15 AM 76.6 °F - 61.2 °F 59% 29.98 in 10.0 mi NNE 4.6 mph - N/A   Clear
3:35 AM 76.3 °F - 61.7 °F 60% 29.98 in 10.0 mi NE 5.8 mph - N/A   Clear
3:55 AM 76.6 °F - 61.9 °F 60% 29.98 in 10.0 mi NE 6.9 mph - N/A   Scattered Clouds
4:15 AM 76.1 °F - 62.6 °F 63% 29.98 in 10.0 mi NNE 5.8 mph - N/A   Scattered Clouds
4:35 AM 75.2 °F - 63.5 °F 67% 29.98 in 10.0 mi NNE 4.6 mph - N/A   Scattered Clouds
4:55 AM 75.4 °F - 63.9 °F 67% 29.98 in 10.0 mi NNE 4.6 mph - N/A   Clear
5:15 AM 75.2 °F - 64.0 °F 68% 29.99 in 10.0 mi NE 4.6 mph - N/A   Scattered Clouds
5:35 AM 74.5 °F - 63.7 °F 69% 29.99 in 10.0 mi NNE 3.5 mph - N/A   Scattered Clouds
5:55 AM 73.9 °F - 63.9 °F 71% 30.00 in 10.0 mi North 4.6 mph - N/A   Clear
6:15 AM 74.3 °F - 64.2 °F 71% 30.00 in 10.0 mi North 4.6 mph - N/A   Clear
6:35 AM 73.8 °F - 64.4 °F 72% 30.00 in 10.0 mi North 4.6 mph - N/A   Scattered Clouds
6:55 AM 72.7 °F - 64.4 °F 75% 30.00 in 10.0 mi North 3.5 mph - N/A   Scattered Clouds
7:15 AM 72.7 °F - 64.8 °F 76% 30.00 in 10.0 mi NNE 4.6 mph - N/A   Clear
7:35 AM 73.4 °F - 64.8 °F 74% 30.01 in 10.0 mi Calm Calm - N/A   Clear
7:55 AM 74.3 °F - 65.1 °F 73% 30.01 in 10.0 mi Calm Calm - N/A   Clear
8:15 AM 75.9 °F - 65.3 °F 70% 30.01 in 10.0 mi North 5.8 mph - N/A   Clear
8:35 AM 77.7 °F - 65.3 °F 65% 30.02 in 10.0 mi NNE 6.9 mph - N/A   Clear
8:55 AM 78.8 °F - 64.6 °F 62% 30.02 in 10.0 mi NE 6.9 mph - N/A   Clear
9:15 AM 79.7 °F - 64.6 °F 60% 30.03 in 10.0 mi North 4.6 mph - N/A   Clear
9:35 AM 81.3 °F 82.7 °F 63.9 °F 55% 30.02 in 10.0 mi Calm Calm - N/A   Clear
9:55 AM 82.8 °F 84.0 °F 63.5 °F 52% 30.03 in 10.0 mi East 4.6 mph - N/A   Clear
10:15 AM 84.4 °F 85.4 °F 63.5 °F 49% 30.03 in 10.0 mi East 4.6 mph - N/A   Clear
10:35 AM 84.9 °F 85.9 °F 63.5 °F 48% 30.03 in 10.0 mi Calm Calm - N/A   Clear
10:55 AM 86.4 °F 86.8 °F 62.1 °F 44% 30.03 in 10.0 mi North 4.6 mph - N/A   Clear
11:15 AM 88.5 °F 88.9 °F 61.7 °F 41% 30.02 in 10.0 mi NNW 4.6 mph - N/A   Clear
11:35 AM 89.1 °F 88.8 °F 60.6 °F 38% 30.02 in 10.0 mi NNW 4.6 mph - N/A   Clear
11:55 AM 89.8 °F 90.0 °F 61.7 °F 39% 30.02 in 10.0 mi Calm Calm - N/A   Clear
12:15 PM 90.5 °F 89.5 °F 58.8 °F 34% 30.02 in 10.0 mi North 4.6 mph - N/A   Clear
12:35 PM 91.4 °F 90.4 °F 58.5 °F 33% 30.02 in 10.0 mi NW 9.2 mph - N/A   Clear
12:55 PM 92.7 °F 92.1 °F 59.7 °F 33% 30.01 in 10.0 mi WNW 6.9 mph - N/A   Clear
1:15 PM 92.1 °F 92.1 °F 60.6 °F 35% 30.01 in 10.0 mi NNW 8.1 mph - N/A   Clear
1:35 PM 92.7 °F 92.1 °F 59.9 °F 33% 30.00 in 10.0 mi NNW 6.9 mph - N/A   Clear
1:55 PM 93.6 °F 92.4 °F 57.4 °F 30% 30.00 in 10.0 mi NW 8.1 mph - N/A   Clear
2:15 PM 94.6 °F 93.5 °F 57.9 °F 29% 29.99 in 10.0 mi WNW 8.1 mph - N/A   Clear
2:35 PM 95.7 °F 93.7 °F 54.7 °F 25% 29.98 in 10.0 mi NNE 11.5 mph - N/A   Clear
2:55 PM 95.2 °F 93.3 °F 54.9 °F 26% 29.97 in 10.0 mi ENE 6.9 mph - N/A   Clear
3:15 PM 97.2 °F 95.2 °F 54.7 °F 24% 29.97 in 10.0 mi NNE 10.4 mph - N/A   Clear
3:35 PM 96.4 °F - 47.1 °F 19% 29.96 in 10.0 mi North 12.7 mph 16.1 mph N/A   Clear
3:55 PM 97.3 °F - 39.2 °F 13% 29.96 in 10.0 mi NNE 5.8 mph - N/A   Clear
4:15 PM 97.2 °F - 43.0 °F 15% 29.95 in 10.0 mi NNE 4.6 mph - N/A   Clear
4:35 PM 97.7 °F - 47.3 °F 18% 29.94 in 10.0 mi North 3.5 mph - N/A   Clear
4:55 PM 96.4 °F - 50.0 °F 21% 29.94 in 10.0 mi NNE 3.5 mph - N/A   Clear
5:15 PM 97.7 °F - 48.7 °F 19% 29.93 in 10.0 mi NNE 5.8 mph - N/A   Clear
5:35 PM 97.5 °F 95.3 °F 53.4 °F 23% 29.93 in 10.0 mi NNW 5.8 mph - N/A   Clear
5:55 PM 96.8 °F - 51.8 °F 22% 29.93 in 10.0 mi NNW 8.1 mph - N/A   Clear
6:15 PM 96.8 °F - 52.0 °F 22% 29.93 in 10.0 mi North 6.9 mph - N/A   Clear
6:35 PM 95.7 °F - 52.5 °F 23% 29.92 in 10.0 mi NNW 5.8 mph - N/A   Clear
6:55 PM 95.2 °F - 52.5 °F 24% 29.92 in 10.0 mi North 8.1 mph - N/A   Clear
7:15 PM 93.7 °F 91.2 °F 53.4 °F 25% 29.93 in 10.0 mi NNW 5.8 mph - N/A   Clear
7:35 PM 91.2 °F 88.9 °F 54.0 °F 28% 29.94 in 10.0 mi NNW 3.5 mph - N/A   Clear
7:55 PM 89.8 °F 87.7 °F 54.5 °F 30% 29.94 in 10.0 mi Calm Calm - N/A   Clear
8:15 PM 88.7 °F 86.9 °F 55.0 °F 32% 29.94 in 10.0 mi Calm Calm - N/A   Clear
8:35 PM 87.1 °F 85.7 °F 55.9 °F 35% 29.95 in 10.0 mi Calm Calm - N/A   Clear
8:55 PM 84.7 °F 84.2 °F 58.3 °F 41% 29.96 in 10.0 mi NNE 3.5 mph - N/A   Clear
9:15 PM 83.7 °F 83.8 °F 60.4 °F 45% 29.97 in 10.0 mi NE 4.6 mph - N/A   Clear
9:35 PM 81.5 °F 82.5 °F 62.2 °F 52% 29.97 in 10.0 mi NE 4.6 mph - N/A   Clear
9:55 PM 82.0 °F 83.0 °F 62.2 °F 51% 29.98 in 10.0 mi NNE 4.6 mph - N/A   Clear
10:15 PM 82.2 °F 83.3 °F 62.8 °F 52% 29.99 in 10.0 mi NNE 5.8 mph - N/A   Clear
10:35 PM 82.9 °F 83.8 °F 62.6 °F 50% 29.99 in 10.0 mi NNE 6.9 mph - N/A   Clear
10:55 PM 81.5 °F 82.7 °F 62.8 °F 53% 29.99 in 10.0 mi NE 3.5 mph - N/A   Clear
11:15 PM 81.0 °F 82.2 °F 62.8 °F 54% 29.99 in 10.0 mi NE 3.5 mph - N/A   Clear
11:35 PM 79.9 °F - 62.8 °F 56% 30.00 in 10.0 mi NNE 4.6 mph - N/A   Clear
11:55 PM 79.0 °F - 63.0 °F 58% 30.00 in 10.0 mi NE 5.8 mph - N/A   Clear